Location: Peebles
(55.6412°N, 3.1714°W)
Time: 01:19:21
(UTC+01:00)

FENGYUN 1C DEB - Pass Details

Date: 04 July 2022
Orbit: 580 x 1160 km, 99.3° (Epoch: 11 August)

Event Time Altitude Azimuth Distance (km) Brightness Sun altitude
Exits shadow 00:22:17 13° 153° (SSE) 2,362 ? -10.6°
Maximum altitude 00:27:32 78° 69° (ENE) 1,009 ? -10.8°
Drops below altitude 10° 00:34:12 10° 344° (NNW) 2,929 ? -10.9°
Sets 00:36:54 0° 343° (NNW) 3,947 ? -11.0°
